Tracking 21092 objects as of 14-Aug-2020
HD Live streaming from Space Station
objects crossing your sky now
Track the most recent launched group of Starlink satellites

COSMOS 862

Track COSMOS 862 now!
COSMOS 862 is classified as:


NORAD ID: 9495
Int'l Code: 1976-105A
Perigee: 4,832.6 km
Apogee: 35,523.5 km
Inclination: 69.7 °
Period: 717.5 minutes
Semi major axis: 26549 km
RCS: 11.7728 m2 (large)
Launch date: October 22, 1976
Source: Commonwealth of Independent States (former USSR) (CIS)
Launch site: PLESETSK MISSILE AND SPACE COMPLEX (PKMTR)
aabbcc
Your satellite tracking list
Your tracking list is empty




NASA's NSSDC Master Catalog

Two Line Element Set (TLE):
1  9495U 76105A   20224.28854863 -.00000644 +00000-0 +00000-0 0  9995
2  9495 069.7379 171.1506 5780023 254.6288 037.5941 02.00691498198827
Source of the keplerian elements: AFSPC